CAPE
0 0 0 0 0 0 0 0 0 0 0 0 0 0 0 0 0 0 0 0 0 0 0 0 0 2 2 2 2 0 0 0 0 2 41 158 417 450 317 256 162 77 33
0 0 0 0 0 0 0 0 0 0 0 0 0 0 0 0 0 0 0 0 0 0 0 0 0 0 10 7 2 4 0 0 0 0 3 58 426 380 286 214 126 60 84
0 0 0 0 0 0 0 0 0 0 0 0 0 0 0 0 0 0 0 0 0 0 0 0 0 0 0 13 6 3 7 0 0 0 0 1 114 353 280 177 128 80 103
0 0 0 0 0 0 0 0 0 0 0 0 0 0 0 0 0 0 0 0 0 0 0 0 0 0 0 0 9 8 5 1 0 0 0 0 11 345 268 178 129 98 91
0 0 0 0 0 0 0 0 0 0 0 0 0 0 0 0 0 0 0 0 0 0 0 0 0 0 0 0 0 9 8 6 0 0 0 0 1 187 249 198 157 97 65
0 0 0 0 0 0 0 0 0 0 0 0 0 0 0 0 0 0 0 0 0 0 0 0 0 0 0 0 0 0 10 8 6 0 0 0 1 14 258 219 178 98 49
0 0 0 0 0 0 0 0 0 0 0 0 0 0 0 0 0 0 0 0 0 0 0 0 0 0 0 0 0 0 2 11 5 3 0 0 0 4 182 140 212 112 79
0 0 0 0 1 0 0 0 0 0 0 0 0 0 0 0 0 0 0 0 0 0 0 0 0 0 0 0 0 0 0 9 7 8 0 0 0 5 58 259 248 144 86
0 0 0 0 0 0 0 0 0 0 0 0 0 0 0 0 0 0 0 0 0 0 0 0 0 0 0 0 0 0 0 1 13 11 11 0 0 10 2 314 301 186 98
0 0 0 0 0 0 0 0 0 0 0 0 0 0 0 0 0 0 0 0 0 0 0 0 0 0 0 0 0 0 0 0 0 5 2 0 1 11 7 254 347 189 117
0 0 0 0 0 0 0 0 0 0 0 0 0 0 0 0 0 0 0 0 0 0 0 0 0 0 0 0 0 0 0 0 0 1 7 12 0 0 0 149 366 227 140
0 0 0 0 0 0 0 0 0 0 0 0 0 0 0 0 0 0 0 0 0 0 0 0 0 0 0 0 0 0 0 0 0 0 0 6 0 0 0 2 391 263 200
0 0 0 0 0 0 0 0 0 0 0 0 0 0 0 0 0 0 0 0 0 0 0 0 0 0 0 0 0 0 0 0 0 0 0 0 0 0 0 0 242 282 204
0 0 0 0 0 0 0 0 0 0 0 0 0 0 0 0 0 0 0 0 0 0 0 0 0 0 0 0 0 0 0 0 0 0 0 0 0 0 0 0 2 99 41
0 0 0 0 0 0 0 0 0 0 0 0 0 0 0 0 0 0 0 0 0 0 0 0 0 0 0 0 0 0 0 0 0 0 0 0 0 0 0 0 0 0 0
0 0 0 0 0 0 0 0 0 3 1 0 0 0 0 0 0 0 0 0 0 0 0 0 0 0 0 0 0 0 0 0 0 0 0 0 0 0 0 0 0 0 0
0 0 0 0 0 0 0 0 0 0 6 0 0 0 0 0 0 0 0 0 0 0 0 0 0 0 0 1 0 0 0 0 0 0 0 0 0 0 0 0 1 0 0
5 3 4 12 2 0 0 0 0 1 7 1 2 0 0 0 0 0 0 0 0 0 0 0 0 0 0 9 0 0 0 0 0 0 0 0 0 0 0 0 1 0 0
1 2 5 1 0 4 0 0 0 3 2 0 0 0 0 0 0 0 0 0 0 0 0 0 0 0 0 0 2 0 0 0 1 0 0 0 0 0 0 1 1 1 0
1 0 1 8 2 0 0 1 1 0 1 0 0 0 0 0 0 0 0 0 0 0 0 0 0 0 0 0 3 0 0 47 1 0 0 0 0 0 0 1 1 1 0
1 0 1 0 1 0 0 0 0 1 1 0 0 1 1 1 0 0 0 0 0 0 0 0 0 0 0 3 3 0 0 3 2 1 1 2 2 1 0 1 0 1 1
0 0 5 3 2 0 8 16 2 0 1 1 2 1 0 6 2 0 0 0 0 0 0 0 0 0 1 0 0 0 5 6 0 11 3 1 4 6 5 0 1 1 1
0 0 0 1 0 0 12 21 7 0 0 0 1 2 6 4 3 0 0 0 0 0 0 0 0 0 0 0 0 0 3 0 3 0 0 0 0 0 2 1 1 1 1
1 4 0 0 1 1 6 17 8 0 0 4 0 0 1 7 0 0 0 0 0 0 0 0 0 0 0 0 0 0 0 18 0 0 0 0 0 1 1 0 1 1 1
1 5 1 0 1 0 12 8 3 2 1 0 2 0 0 1 0 0 0 0 0 0 0 0 0 0 0 0 0 1 14 14 0 0 0 0 0 0 2 0 0 0 1
0 2 13 3 4 2 11 9 0 0 0 0 0 1 1 0 0 0 0 0 0 0 0 0 0 0 24 11 1 0 0 8 0 0 0 0 0 0 0 0 0 0 0
CIN
-0 -0 -0 -0 -0 -0 -0 -0 -0 -0 -0 -0 -0 -0 -0 -0 -0 -0 -0 -0 -0 -0 -0 -0 -0 -0 -0 -0 -0 -0 -0 -0 -0 -167 -113 -41 -7 -2 -1 -0 -0 -7 -30
-0 -0 -0 -0 -0 -0 -0 -0 -0 -0 -0 -0 -0 -0 -0 -0 -0 -0 -0 -0 -0 -0 -0 -0 -0 -0 -0 -0 -0 -0 -0 -0 -0 -0 -71 -116 -3 -4 -2 -0 -4 -16 -7
-0 -0 -0 -0 -0 -0 -0 -0 -0 -0 -0 -0 -0 -0 -0 -0 -0 -0 -0 -0 -0 -0 -0 -0 -0 -0 -0 -0 -0 -0 -0 -0 -0 -0 -0 -0 -43 -10 -1 -3 -6 -12 -4
-0 -0 -0 -0 -0 -0 -0 -0 -0 -0 -0 -0 -0 -0 -0 -0 -0 -0 -0 -0 -0 -0 -0 -0 -0 -0 -0 -0 -0 -0 -0 -0 -0 -0 -0 -0 -29 -5 -5 -3 -13 -16 -12
-0 -0 -0 -0 -0 -0 -0 -0 -0 -0 -0 -0 -0 -0 -0 -0 -0 -0 -0 -0 -0 -0 -0 -0 -0 -0 -0 -0 -0 -0 -0 -0 -0 -0 -0 -0 -0 -23 -14 -5 -9 -12 -15
-0 -0 -0 -0 -0 -0 -0 -0 -0 -0 -0 -0 -0 -0 -0 -0 -0 -0 -0 -0 -0 -0 -0 -0 -0 -0 -0 -0 -0 -0 -0 -0 -0 -0 -0 -0 -0 -125 -3 -1 -6 -14 -6
-0 -0 -0 -0 -0 -0 -0 -0 -0 -0 -0 -0 -0 -0 -0 -0 -0 -0 -0 -0 -0 -0 -0 -0 -0 -0 -0 -0 -0 -0 -0 -0 -0 -0 -0 -0 -0 -0 -6 -48 -0 -12 -11
-0 -0 -0 -0 -50 -0 -0 -0 -0 -0 -0 -0 -0 -0 -0 -0 -0 -0 -0 -0 -0 -0 -0 -0 -0 -0 -0 -0 -0 -0 -0 -0 -0 -0 -0 -0 -0 -0 -33 -2 -2 -1 -10
-0 -0 -0 -0 -0 -0 -0 -0 -0 -0 -0 -0 -0 -0 -2 -0 -0 -0 -0 -0 -0 -0 -0 -0 -0 -0 -0 -0 -0 -0 -0 -0 -0 -0 -4 -0 -0 -84 -5 -2 -0 -11 -8
-0 -0 -0 -0 -0 -0 -0 -0 -0 -0 -0 -0 -0 -0 -0 -0 -0 -0 -0 -0 -0 -0 -0 -0 -0 -0 -0 -0 -0 -0 -0 -0 -0 -15 -17 -0 -0 -65 -58 -4 -1 -6 -1
-0 -0 -0 -0 -0 -0 -0 -0 -0 -0 -0 -0 -0 -0 -0 -0 -0 -0 -0 -0 -0 -0 -0 -0 -0 -0 -0 -0 -0 -0 -0 -0 -0 -21 -33 -8 -0 -1 -0 -24 -1 -1 -1
-0 -0 -0 -0 -0 -0 -0 -0 -0 -0 -0 -0 -0 -0 -0 -0 -0 -0 -0 -0 -0 -0 -0 -0 -0 -0 -0 -0 -0 -0 -0 -0 -0 -0 -0 -14 -0 -0 -0 -0 -0 -0 -0
-0 -0 -0 -0 -0 -0 -0 -0 -0 -0 -0 -0 -0 -0 -0 -0 -0 -0 -0 -0 -0 -0 -0 -0 -0 -0 -0 -0 -0 -0 -0 -0 -0 -0 -0 -0 -0 -0 -0 -0 -4 -0 -1
-0 -0 -0 -0 -0 -0 -0 -0 -0 -0 -0 -0 -0 -0 -0 -0 -0 -0 -0 -0 -0 -0 -0 -0 -0 -0 -0 -0 -0 -0 -0 -0 -0 -0 -0 -0 -0 -0 -0 -0 -0 -19 -7
-0 -0 -0 -0 -0 -0 -0 -0 -0 -0 -0 -0 -0 -0 -0 -0 -0 -0 -0 -0 -0 -0 -0 -0 -0 -0 -0 -0 -0 -0 -0 -0 -0 -0 -0 -0 -0 -0 -0 -0 -0 -0 -0
-0 -0 -0 -0 -0 -0 -0 -0 -0 -0 -0 -0 -0 -0 -0 -0 -0 -0 -0 -0 -0 -0 -0 -0 -0 -0 -0 -0 -0 -0 -0 -0 -0 -0 -0 -0 -0 -0 -0 -0 -0 -0 -0
-0 -0 -0 -0 -0 -0 -0 -0 -0 -0 -0 -0 -0 -0 -0 -0 -0 -0 -0 -0 -0 -0 -0 -0 -0 -0 -0 -52 -0 -0 -0 -0 -0 -0 -0 -0 -0 -0 -0 -0 -0 -0 -0
-3 -0 -4 -2 -1 -0 -0 -0 -0 -0 -0 -0 -1 -0 -0 -0 -0 -0 -0 -0 -0 -0 -0 -0 -0 -0 -0 -35 -0 -0 -0 -0 -0 -0 -0 -0 -0 -0 -0 -0 -0 -0 -0
-0 -10 -1 -0 -1 -0 -0 -0 -0 -1 -0 -0 -0 -0 -0 -0 -0 -0 -0 -0 -0 -0 -0 -0 -0 -0 -0 -40 -39 -0 -0 -0 -38 -0 -0 -0 -0 -0 -0 -0 -0 -0 -0
-0 -0 -1 -1 -0 -0 -0 -0 -0 -0 -0 -0 -0 -0 -0 -0 -0 -0 -0 -0 -0 -0 -0 -0 -0 -0 -0 -0 -50 -0 -0 -14 -11 -0 -0 -0 -0 -0 -0 -0 -0 -0 -0
-0 -0 -0 -0 -0 -0 -0 -0 -0 -0 -0 -0 -0 -0 -0 -0 -0 -0 -0 -0 -0 -0 -0 -0 -0 -0 -0 -39 -28 -0 -2 -47 -25 -1 -0 -0 -0 -0 -0 -0 -0 -0 -0
-0 -0 -0 -0 -0 -0 -0 -0 -0 -0 -0 -0 -0 -0 -0 -0 -0 -0 -0 -0 -0 -0 -0 -0 -0 -0 -45 -0 -0 -0 -27 -34 -0 -0 -0 -0 -0 -0 -0 -0 -0 -0 -0
-0 -2 -0 -0 -0 -0 -0 -0 -0 -0 -0 -0 -0 -0 -0 -0 -0 -0 -0 -0 -0 -0 -0 -0 -0 -0 -0 -0 -0 -0 -34 -0 -10 -0 -0 -0 -0 -0 -0 -0 -0 -0 -0
-1 -0 -1 -0 -0 -0 -0 -0 -0 -0 -0 -0 -0 -0 -0 -0 -0 -0 -0 -0 -0 -0 -0 -0 -0 -0 -0 -0 -0 -23 -0 -41 -0 -0 -0 -0 -0 -0 -0 -0 -0 -0 -0
-0 -0 -0 -0 -0 -0 -0 -0 -0 -0 -0 -0 -0 -0 -0 -0 -0 -0 -0 -0 -0 -0 -0 -0 -0 -0 -0 -0 -0 -26 -7 -7 -0 -0 -0 -0 -0 -0 -0 -0 -0 -0 -0
-0 -0 -0 -0 -0 -0 -0 -0 -0 -0 -0 -0 -0 -0 -1 -0 -0 -0 -0 -0 -0 -0 -0 -0 -0 -3 -60 -95 -2 -5 -1 -2 -0 -0 -0 -0 -0 -0 -0 -0 -0 -0 -0
Wind_Speed
3 3 2 2 3 2 3 4 3 3 2 3 1 2 3 2 3 2 2 5 2 2 5 5 6 6 3 3 4 3 4 6 6 5 6 1 12 14 15 14 14 13 12
5 4 5 5 4 4 4 4 4 5 4 3 2 2 4 4 4 4 3 4 7 4 6 6 7 8 7 3 2 5 3 5 6 4 5 6 9 15 16 15 15 14 13
6 7 5 5 5 5 5 3 4 2 2 2 3 3 3 4 4 5 4 3 4 8 7 7 7 7 10 9 6 5 6 4 6 5 3 6 3 16 16 16 16 15 14
7 6 5 6 5 3 3 3 3 3 4 3 2 4 4 3 6 6 4 4 4 3 5 8 8 7 8 11 9 8 7 5 5 6 1 5 5 13 18 17 16 14 14
8 8 7 5 5 4 4 3 3 3 3 3 4 4 4 3 4 2 5 5 6 5 3 8 9 9 8 9 12 11 9 7 6 7 5 3 5 5 17 18 17 16 14
7 6 3 4 4 4 4 3 4 3 3 4 4 4 3 3 2 3 5 3 5 6 5 6 4 4 10 10 11 13 12 9 7 8 7 4 6 4 15 17 18 18 16
4 5 1 3 4 5 9 6 4 5 3 3 1 2 3 5 4 4 4 4 5 6 5 5 4 4 4 11 11 13 13 13 10 9 8 7 6 7 11 19 18 19 17
6 4 5 7 11 9 6 6 5 3 3 4 4 2 2 5 3 5 3 5 7 4 4 6 6 6 5 4 7 12 14 14 11 9 10 10 6 6 7 19 18 19 18
4 4 5 6 6 5 7 7 7 8 5 4 6 5 2 4 1 3 4 4 6 4 4 4 6 6 6 5 6 8 12 12 13 12 11 11 8 6 5 20 20 20 19
7 6 6 6 6 4 6 7 7 5 5 5 2 3 1 5 4 3 3 3 1 3 4 4 4 5 6 5 7 10 11 11 10 14 12 12 10 7 6 14 21 20 20
6 4 1 1 1 2 4 5 4 7 6 5 4 3 2 1 2 4 3 4 3 2 3 4 5 4 6 5 5 6 12 11 11 12 11 7 2 3 5 8 23 21 20
4 4 3 3 4 4 4 3 2 5 6 7 5 5 5 4 4 3 2 3 2 4 3 4 4 4 5 5 7 10 11 10 11 11 6 6 1 2 6 9 26 23 22
1 4 5 5 3 4 3 2 2 3 4 7 9 5 5 5 5 4 4 2 3 2 3 2 4 4 4 4 5 9 10 12 11 10 8 6 7 4 3 10 18 24 23
4 4 5 5 5 6 6 6 4 3 3 5 8 6 5 5 4 4 5 5 1 1 2 5 2 4 4 4 7 10 5 11 10 10 9 9 10 8 3 8 10 23 21
4 6 6 6 5 5 5 6 5 7 5 4 6 8 5 5 5 5 4 4 5 3 2 4 2 3 3 4 5 5 6 11 13 12 10 9 8 10 7 5 12 21 19
6 7 6 6 6 6 6 5 4 5 11 8 3 7 6 5 6 5 5 4 4 4 2 2 3 3 3 3 5 6 6 8 10 10 10 9 8 10 9 8 11 18 17
7 8 6 6 7 6 5 5 7 8 9 12 8 8 9 8 6 6 5 4 4 4 4 3 3 3 3 3 3 3 3 5 4 11 11 10 9 9 10 8 11 18 18
8 8 9 9 8 8 8 8 8 8 10 14 11 6 7 8 10 9 7 6 5 4 4 2 2 3 3 3 3 4 3 4 5 8 12 10 10 9 8 8 12 18 16
10 7 8 7 8 9 8 9 9 7 6 6 8 11 6 11 10 5 6 7 5 4 3 3 1 2 3 0 2 1 3 3 2 4 8 8 11 8 9 12 18 18 17
7 7 6 7 7 7 8 9 10 8 7 5 5 5 3 6 13 12 8 8 6 5 3 2 1 3 3 2 2 1 1 1 1 3 5 8 8 8 12 15 20 20 20
5 6 7 6 6 6 6 8 9 10 7 6 5 8 6 4 8 9 8 6 7 4 3 3 1 2 2 1 2 1 1 1 1 2 3 2 3 4 9 16 19 20 17
7 7 7 6 5 4 9 13 11 9 9 8 8 7 7 13 7 8 9 10 9 7 4 3 2 2 3 0 2 2 1 2 1 2 2 3 4 7 8 11 13 16 16
7 6 7 6 6 6 7 12 14 8 7 7 8 9 9 8 13 7 7 10 8 8 6 5 2 3 2 2 3 3 1 1 1 2 7 4 5 6 4 7 17 14 16
5 6 5 7 6 5 9 13 13 8 6 7 6 8 7 11 12 10 7 6 5 4 5 4 4 5 3 4 4 3 3 3 4 4 3 5 3 5 6 8 10 17 18
5 5 3 5 6 5 9 10 9 7 7 5 7 7 6 8 15 14 10 7 5 3 5 6 6 8 9 8 7 4 5 6 2 1 3 5 1 5 6 9 8 9 19
4 5 5 5 7 5 10 10 8 7 7 6 5 5 15 9 14 14 10 8 6 5 4 1 3 5 6 5 4 5 5 7 3 3 0 6 3 3 4 5 6 6 8
Wind_Direction
182 171 196 197 218 206 216 228 202 235 202 226 239 232 256 249 164 167 224 230 228 310 330 309 258 272 279 303 353 353 338 342 342 352 357 64 158 148 143 139 136 136 137
173 176 176 177 191 195 203 208 202 180 179 187 233 226 235 241 224 179 187 227 224 252 291 302 282 254 258 276 292 348 330 326 327 348 312 358 175 155 146 144 143 141 141
197 193 189 192 202 202 198 182 188 195 204 224 250 262 248 252 238 237 199 205 237 241 251 276 285 267 254 265 254 262 322 301 308 319 351 327 304 156 150 147 146 145 145
218 206 199 210 208 169 182 178 199 231 230 214 245 266 280 268 247 233 228 218 214 220 247 250 262 275 260 250 254 262 267 290 277 283 339 289 327 172 153 151 148 146 144
217 208 216 204 190 187 188 181 191 178 230 228 226 237 241 253 255 292 255 213 223 217 215 231 235 248 260 254 249 251 253 262 257 261 255 267 289 207 157 153 150 150 148
224 234 227 216 194 180 205 190 194 180 193 232 230 219 236 243 260 237 240 245 231 220 215 218 240 238 239 252 252 245 245 245 252 249 247 238 265 287 171 160 155 151 149
280 158 191 237 217 224 212 190 178 194 232 201 76 322 292 244 251 253 258 245 232 221 208 224 219 219 239 244 251 243 237 238 236 250 242 235 237 261 191 165 160 151 150
234 222 232 257 241 221 200 191 175 170 212 179 169 88 307 320 315 262 241 237 230 225 216 224 209 214 219 230 246 248 236 238 235 239 234 235 221 251 232 164 158 153 151
212 207 221 214 220 207 198 190 181 170 190 217 203 159 109 225 317 323 296 269 238 199 222 237 217 207 215 223 238 237 240 250 240 234 271 226 225 241 278 171 163 155 154
268 243 226 217 216 205 213 208 196 174 149 193 179 234 172 150 169 313 310 337 309 219 230 223 228 221 209 217 220 220 231 235 244 260 279 214 222 222 261 194 160 158 157
271 330 40 120 214 230 217 221 236 184 181 164 165 149 172 125 110 133 245 320 348 278 256 221 213 221 210 206 219 229 218 218 229 254 272 161 135 68 331 217 159 161 159
122 95 76 90 94 86 67 43 305 243 228 188 172 171 168 161 182 145 145 207 219 287 250 233 224 230 223 204 214 218 207 206 218 239 255 232 12 306 324 304 161 161 162
243 178 166 169 171 169 163 131 24 345 266 223 184 187 182 190 154 160 144 183 189 289 308 257 238 213 219 201 213 215 204 201 208 216 231 246 263 272 314 311 174 164 166
245 249 258 239 209 200 191 187 178 211 278 251 224 174 176 184 164 157 157 142 81 302 325 253 265 220 220 204 208 209 208 192 197 207 210 221 249 265 264 298 302 160 163
253 246 249 250 243 237 239 217 197 211 214 251 225 208 163 180 174 169 154 148 149 177 255 314 312 272 228 210 212 189 197 195 198 204 206 213 227 250 233 264 298 158 160
253 252 249 244 241 235 232 213 219 251 230 215 198 214 193 161 169 159 157 148 134 142 182 227 287 284 256 220 204 183 196 191 202 207 210 216 218 232 225 236 287 153 153
273 264 247 248 236 232 216 206 229 236 251 211 197 205 202 160 162 154 145 132 126 129 145 288 256 291 230 220 142 191 195 199 212 215 211 211 208 219 213 219 224 148 151
278 277 272 264 249 226 209 211 212 223 228 220 199 168 195 168 155 157 153 143 142 140 133 168 289 328 241 180 169 174 210 211 207 212 209 203 202 218 207 215 180 151 151
289 277 274 259 263 259 218 197 198 206 225 212 171 156 175 167 150 141 145 133 138 130 135 133 297 310 280 203 137 148 203 248 265 182 176 186 222 216 208 192 160 144 136
316 308 289 283 279 245 235 204 181 184 192 199 174 144 166 152 155 151 147 141 142 133 134 143 295 293 263 281 93 157 227 174 168 140 176 212 202 198 189 171 148 146 143
330 319 299 283 263 240 221 227 176 167 172 172 173 168 181 198 101 144 148 143 137 128 134 157 245 291 282 266 155 237 180 126 241 153 162 149 133 167 174 156 148 144 141
355 347 330 322 312 261 221 203 172 156 161 170 178 188 164 182 183 128 159 144 153 146 154 152 141 276 291 218 95 200 198 128 219 125 128 93 150 160 164 152 137 147 140
359 344 345 338 339 335 181 181 151 140 151 159 170 164 179 174 170 154 149 137 146 156 145 149 155 251 300 37 -0 296 256 225 116 48 102 50 27 61 14 104 120 125 125
352 354 358 348 25 30 99 133 133 134 137 151 168 154 166 169 161 155 138 129 142 178 156 160 182 259 279 273 235 256 220 104 70 48 27 91 352 64 37 56 87 128 124
356 358 356 8 10 48 96 123 129 129 145 137 140 159 161 148 165 171 144 137 139 172 198 188 228 265 266 240 220 199 163 158 124 78 25 104 33 85 47 35 33 100 123
337 346 12 33 44 67 95 96 94 125 121 132 118 128 165 172 157 165 147 149 145 192 174 83 314 318 348 318 166 216 166 157 144 99 10 87 157 127 71 23 28 50 80